Wetterdaten: Woche 29.02.16 - 06.03.16 (KW9)
Datum Zeit Temp. A. Feuchte A. Luftdruck Regen Wind Richtung Sonnenschein ET UV Solar Taupunkt Windchill Windben Empfang
29.02.2016 00:00 2,1 C 94 % 1009,6 hPa 0,0 l/m 3,0 km/h (1 Bft) O-NO 0,00 h 0,000 mm 0,0 UV-I 0 W/m 1,3 C 2,1 C 4,6 km/h (1 Bft) 98,52 %
29.02.2016 01:00 4,5 C 93 % 1009,5 hPa 0,0 l/m 10,4 km/h (2 Bft) O-NO 0,00 h 0,000 mm 0,0 UV-I 0 W/m 3,5 C 1,5 C 14,3 km/h (3 Bft) 98,55 %
29.02.2016 02:00 5,8 C 91 % 1008,9 hPa 0,0 l/m 15,5 km/h (3 Bft) NO 0,00 h 0,000 mm 0,0 UV-I 0 W/m 4,5 C 0,1 C 21,3 km/h (4 Bft) 98,04 %
29.02.2016 03:00 6,2 C 90 % 1008,2 hPa 0,0 l/m 24,5 km/h (4 Bft) O-NO 0,00 h 0,025 mm 0,0 UV-I 0 W/m 4,7 C -3,0 C 33,2 km/h (5 Bft) 98,18 %
29.02.2016 04:00 6,2 C 91 % 1008,1 hPa 0,0 l/m 29,3 km/h (5 Bft) O-NO 0,00 h 0,026 mm 0,0 UV-I 0 W/m 4,8 C -4,4 C 38,7 km/h (5 Bft) 99,41 %
29.02.2016 05:00 6,3 C 92 % 1008,1 hPa 0,0 l/m 29,1 km/h (5 Bft) O-NO 0,00 h 0,025 mm 0,0 UV-I 0 W/m 5,0 C -4,3 C 38,3 km/h (5 Bft) 98,17 %
29.02.2016 06:00 6,3 C 92 % 1008,0 hPa 0,0 l/m 29,8 km/h (5 Bft) O-NO 0,00 h 0,026 mm 0,0 UV-I 0 W/m 5,0 C -4,5 C 40,1 km/h (6 Bft) 99,32 %
29.02.2016 07:00 6,2 C 92 % 1007,9 hPa 0,0 l/m 29,7 km/h (5 Bft) O-NO 0,00 h 0,025 mm 0,0 UV-I 15 W/m 5,0 C -4,5 C 40,2 km/h (6 Bft) 97,94 %
29.02.2016 08:00 6,2 C 91 % 1008,1 hPa 0,0 l/m 28,5 km/h (4 Bft) O-NO 0,00 h 0,025 mm 0,0 UV-I 25 W/m 4,8 C -4,2 C 38,1 km/h (5 Bft) 99,11 %
29.02.2016 09:00 6,1 C 91 % 1008,0 hPa 0,0 l/m 27,1 km/h (4 Bft) O-NO 0,00 h 0,026 mm 0,0 UV-I 26 W/m 4,7 C -4,0 C 35,6 km/h (5 Bft) 98,24 %
29.02.2016 10:00 5,9 C 92 % 1007,6 hPa 1,4 l/m 27,2 km/h (4 Bft) O-NO 0,00 h 0,025 mm 0,0 UV-I 33 W/m 4,7 C -4,2 C 35,6 km/h (5 Bft) 99,06 %
29.02.2016 11:00 5,9 C 93 % 1007,2 hPa 1,0 l/m 23,9 km/h (4 Bft) NO 0,00 h 0,026 mm 0,0 UV-I 31 W/m 4,8 C -3,2 C 31,8 km/h (5 Bft) 97,87 %
29.02.2016 12:00 6,2 C 91 % 1006,8 hPa 0,2 l/m 26,4 km/h (4 Bft) O-NO 0,00 h 0,025 mm 0,0 UV-I 37 W/m 4,7 C -3,7 C 34,8 km/h (5 Bft) 99,10 %
29.02.2016 13:00 6,4 C 89 % 1006,1 hPa 0,2 l/m 29,3 km/h (5 Bft) NO 0,00 h 0,025 mm 0,0 UV-I 63 W/m 4,7 C -4,2 C 38,3 km/h (5 Bft) 97,68 %
29.02.2016 14:00 6,6 C 89 % 1005,9 hPa 0,0 l/m 22,9 km/h (4 Bft) NO 0,00 h 0,051 mm 0,0 UV-I 60 W/m 5,0 C -2,0 C 29,4 km/h (5 Bft) 99,24 %
29.02.2016 15:00 6,9 C 89 % 1005,7 hPa 0,0 l/m 18,7 km/h (3 Bft) NO 0,00 h 0,051 mm 0,0 UV-I 50 W/m 5,2 C -0,2 C 24,0 km/h (4 Bft) 97,94 %
29.02.2016 16:00 7,2 C 88 % 1005,9 hPa 0,0 l/m 14,9 km/h (3 Bft) NO 0,00 h 0,051 mm 0,0 UV-I 31 W/m 5,3 C 1,9 C 19,9 km/h (4 Bft) 99,15 %
29.02.2016 17:00 7,0 C 88 % 1006,4 hPa 0,0 l/m 13,7 km/h (3 Bft) O-NO 0,00 h 0,025 mm 0,0 UV-I 14 W/m 5,2 C 2,2 C 18,7 km/h (3 Bft) 98,18 %
29.02.2016 18:00 6,2 C 90 % 1007,7 hPa 1,2 l/m 9,4 km/h (2 Bft) O 0,00 h 0,026 mm 0,0 UV-I 0 W/m 4,6 C 3,5 C 14,8 km/h (3 Bft) 99,05 %
29.02.2016 19:00 3,1 C 93 % 1009,0 hPa 2,6 l/m 18,9 km/h (3 Bft) SW 0,00 h 0,000 mm 0,0 UV-I 0 W/m 2,1 C -5,0 C 27,0 km/h (4 Bft) 97,80 %
29.02.2016 20:00 2,4 C 94 % 1010,0 hPa 3,0 l/m 17,9 km/h (3 Bft) W-SW 0,00 h 0,000 mm 0,0 UV-I 0 W/m 1,6 C -5,5 C 26,0 km/h (4 Bft) 99,11 %
29.02.2016 21:00 2,1 C 94 % 1010,9 hPa 1,6 l/m 18,9 km/h (3 Bft) SW 0,00 h 0,000 mm 0,0 UV-I 0 W/m 1,2 C -6,3 C 26,3 km/h (4 Bft) 97,65 %
29.02.2016 22:00 1,8 C 95 % 1011,7 hPa 0,6 l/m 18,1 km/h (3 Bft) W-SW 0,00 h 0,000 mm 0,0 UV-I 0 W/m 1,1 C -6,3 C 25,2 km/h (4 Bft) 99,31 %
29.02.2016 23:00 2,1 C 94 % 1012,5 hPa 0,4 l/m 16,7 km/h (3 Bft) W-SW 0,00 h 0,000 mm 0,0 UV-I 0 W/m 1,3 C -5,3 C 22,8 km/h (4 Bft) 97,92 %
01.03.2016 00:00 1,9 C 94 % 1012,9 hPa 0,2 l/m 15,6 km/h (3 Bft) W-SW 0,00 h 0,000 mm 0,0 UV-I 0 W/m 1,1 C -4,9 C 21,4 km/h (4 Bft) 98,90 %
01.03.2016 01:00 1,7 C 94 % 1013,6 hPa 0,2 l/m 16,8 km/h (3 Bft) W-SW 0,00 h 0,000 mm 0,0 UV-I 0 W/m 0,8 C -5,8 C 23,3 km/h (4 Bft) 97,78 %
01.03.2016 02:00 1,3 C 94 % 1013,9 hPa 0,2 l/m 17,5 km/h (3 Bft) SW 0,00 h 0,000 mm 0,0 UV-I 0 W/m 0,4 C -6,6 C 24,1 km/h (4 Bft) 98,95 %
01.03.2016 03:00 1,0 C 93 % 1014,0 hPa 0,0 l/m 19,1 km/h (3 Bft) SW 0,00 h 0,000 mm 0,0 UV-I 0 W/m -0,0 C -7,9 C 26,7 km/h (4 Bft) 98,44 %
01.03.2016 04:00 0,7 C 93 % 1014,3 hPa 0,0 l/m 20,2 km/h (4 Bft) W-SW 0,00 h 0,000 mm 0,0 UV-I 0 W/m -0,3 C -8,8 C 28,7 km/h (4 Bft) 98,71 %
01.03.2016 05:00 0,5 C 92 % 1015,1 hPa 0,0 l/m 19,4 km/h (3 Bft) SW 0,00 h 0,000 mm 0,0 UV-I 0 W/m -0,6 C -8,6 C 27,3 km/h (4 Bft) 99,20 %
01.03.2016 06:00 0,3 C 92 % 1015,9 hPa 0,0 l/m 17,4 km/h (3 Bft) W-SW 0,00 h 0,000 mm 0,0 UV-I 0 W/m -0,7 C -7,8 C 24,3 km/h (4 Bft) 98,00 %
01.03.2016 07:00 0,1 C 94 % 1016,9 hPa 0,0 l/m 16,8 km/h (3 Bft) W-SW 0,00 h 0,000 mm 0,0 UV-I 10 W/m -0,7 C -7,7 C 24,0 km/h (4 Bft) 98,82 %
01.03.2016 08:00 0,2 C 94 % 1017,8 hPa 0,0 l/m 18,2 km/h (3 Bft) SW 0,00 h 0,000 mm 0,0 UV-I 34 W/m -0,7 C -8,5 C 25,5 km/h (4 Bft) 97,65 %
01.03.2016 09:00 0,3 C 93 % 1018,3 hPa 0,0 l/m 17,1 km/h (3 Bft) W-SW 0,00 h 0,025 mm 0,0 UV-I 49 W/m -0,8 C -7,8 C 23,0 km/h (4 Bft) 99,49 %
01.03.2016 10:00 0,5 C 91 % 1018,4 hPa 0,0 l/m 17,5 km/h (3 Bft) W-SW 0,00 h 0,026 mm 0,3 UV-I 82 W/m -0,8 C -7,7 C 23,9 km/h (4 Bft) 97,65 %
01.03.2016 11:00 0,7 C 89 % 1018,7 hPa 0,0 l/m 15,2 km/h (3 Bft) W-SW 0,00 h 0,051 mm 0,5 UV-I 82 W/m -0,9 C -6,1 C 20,5 km/h (4 Bft) 99,08 %
01.03.2016 12:00 1,0 C 86 % 1018,8 hPa 0,0 l/m 16,6 km/h (3 Bft) W-SW 0,00 h 0,050 mm 0,6 UV-I 91 W/m -1,1 C -6,4 C 24,2 km/h (4 Bft) 97,69 %
01.03.2016 13:00 0,9 C 85 % 1018,8 hPa 0,2 l/m 15,6 km/h (3 Bft) W 0,00 h 0,051 mm 0,0 UV-I 39 W/m -1,3 C -6,1 C 22,5 km/h (4 Bft) 99,27 %
01.03.2016 14:00 1,0 C 86 % 1018,3 hPa 0,0 l/m 13,1 km/h (3 Bft) W-SW 0,00 h 0,026 mm 0,0 UV-I 39 W/m -1,1 C -4,4 C 19,2 km/h (3 Bft) 97,81 %
01.03.2016 15:00 1,0 C 88 % 1018,0 hPa 0,2 l/m 15,1 km/h (3 Bft) W-SW 0,00 h 0,025 mm 0,0 UV-I 34 W/m -0,7 C -5,7 C 20,8 km/h (4 Bft) 99,32 %
01.03.2016 16:00 1,0 C 89 % 1018,2 hPa 0,0 l/m 13,8 km/h (3 Bft) W-SW 0,00 h 0,025 mm 0,0 UV-I 17 W/m -0,7 C -4,9 C 18,9 km/h (3 Bft) 97,61 %
01.03.2016 17:00 0,8 C 90 % 1018,5 hPa 0,0 l/m 9,8 km/h (2 Bft) W-SW 0,00 h 0,026 mm 0,0 UV-I 5 W/m -0,6 C -2,3 C 13,8 km/h (3 Bft) 98,38 %
01.03.2016 18:00 0,7 C 92 % 1018,7 hPa 0,0 l/m 12,6 km/h (3 Bft) W-SW 0,00 h 0,000 mm 0,0 UV-I 0 W/m -0,4 C -4,4 C 17,3 km/h (3 Bft) 98,39 %
01.03.2016 19:00 1,1 C 91 % 1018,6 hPa 0,0 l/m 9,1 km/h (2 Bft) W-SW 0,00 h 0,000 mm 0,0 UV-I 0 W/m -0,2 C -1,4 C 13,4 km/h (3 Bft) 98,87 %
01.03.2016 20:00 1,4 C 90 % 1018,1 hPa 0,0 l/m 8,3 km/h (2 Bft) W-SW 0,00 h 0,000 mm 0,0 UV-I 0 W/m -0,0 C -0,7 C 12,1 km/h (2 Bft) 99,06 %
01.03.2016 21:00 1,6 C 90 % 1017,7 hPa 0,2 l/m 9,4 km/h (2 Bft) W-SW 0,00 h 0,000 mm 0,0 UV-I 0 W/m 0,1 C -1,1 C 13,6 km/h (3 Bft) 98,84 %
01.03.2016 22:00 1,7 C 89 % 1017,2 hPa 0,0 l/m 10,3 km/h (2 Bft) W-SW 0,00 h 0,000 mm 0,0 UV-I 0 W/m 0,1 C -1,7 C 14,4 km/h (3 Bft) 98,71 %
01.03.2016 23:00 1,4 C 90 % 1016,7 hPa 0,2 l/m 10,5 km/h (2 Bft) W-SW 0,00 h 0,000 mm 0,0 UV-I 0 W/m -0,1 C -2,2 C 14,8 km/h (3 Bft) 98,12 %
02.03.2016 00:00 1,0 C 90 % 1016,1 hPa 0,0 l/m 7,5 km/h (2 Bft) SW 0,00 h 0,000 mm 0,0 UV-I 0 W/m -0,5 C -0,2 C 10,6 km/h (2 Bft) 99,44 %
02.03.2016 01:00 0,2 C 92 % 1015,3 hPa 0,0 l/m 4,5 km/h (1 Bft) SW 0,00 h 0,000 mm 0,0 UV-I 0 W/m -0,9 C 0,2 C 6,1 km/h (2 Bft) 97,76 %
02.03.2016 02:00 0,2 C 92 % 1014,3 hPa 0,0 l/m 4,4 km/h (1 Bft) S-SW 0,00 h 0,000 mm 0,0 UV-I 0 W/m -0,9 C 0,1 C 6,0 km/h (2 Bft) 99,29 %
02.03.2016 03:00 0,5 C 92 % 1013,3 hPa 0,0 l/m 6,3 km/h (2 Bft) SW 0,00 h 0,000 mm 0,0 UV-I 0 W/m -0,6 C -0,0 C 9,0 km/h (2 Bft) 97,99 %
02.03.2016 04:00 0,8 C 92 % 1013,0 hPa 0,0 l/m 3,2 km/h (1 Bft) SW 0,00 h 0,000 mm 0,0 UV-I 0 W/m -0,4 C 0,8 C 5,0 km/h (1 Bft) 99,51 %
02.03.2016 05:00 0,7 C 94 % 1012,6 hPa 0,0 l/m 1,8 km/h (1 Bft) S-SW 0,00 h 0,000 mm 0,0 UV-I 0 W/m -0,2 C 0,7 C 3,4 km/h (1 Bft) 97,67 %
02.03.2016 06:00 0,7 C 95 % 1011,8 hPa 0,0 l/m 2,9 km/h (1 Bft) S 0,00 h 0,000 mm 0,0 UV-I 5 W/m -0,0 C 0,6 C 4,8 km/h (1 Bft) 99,33 %
02.03.2016 07:00 0,6 C 96 % 1011,3 hPa 0,0 l/m 1,8 km/h (1 Bft) NO 0,00 h 0,000 mm 0,0 UV-I 14 W/m 0,1 C 0,6 C 2,8 km/h (1 Bft) 97,90 %
02.03.2016 08:00 1,1 C 97 % 1010,9 hPa 0,6 l/m 1,0 km/h (0 Bft) S 0,00 h 0,000 mm 0,0 UV-I 56 W/m 0,6 C 1,1 C 2,1 km/h (1 Bft) 99,19 %
02.03.2016 09:00 2,2 C 96 % 1010,2 hPa 0,4 l/m 1,1 km/h (1 Bft) S 0,00 h 0,025 mm 0,4 UV-I 92 W/m 1,6 C 2,2 C 2,5 km/h (1 Bft) 97,96 %
02.03.2016 10:00 3,7 C 94 % 1009,2 hPa 0,2 l/m 1,9 km/h (1 Bft) NO 0,00 h 0,026 mm 0,7 UV-I 141 W/m 2,8 C 3,7 C 3,0 km/h (1 Bft) 99,35 %
02.03.2016 11:00 4,6 C 94 % 1008,2 hPa 0,0 l/m 5,0 km/h (1 Bft) O 0,00 h 0,051 mm 0,7 UV-I 117 W/m 3,7 C 4,4 C 7,4 km/h (2 Bft) 98,06 %
02.03.2016 12:00 5,8 C 92 % 1006,8 hPa 0,0 l/m 8,3 km/h (2 Bft) O 0,22 h 0,050 mm 1,4 UV-I 288 W/m 4,6 C 4,1 C 11,7 km/h (2 Bft) 98,49 %
02.03.2016 13:00 7,7 C 89 % 1005,2 hPa 0,0 l/m 8,8 km/h (2 Bft) O-NO 0,90 h 0,127 mm 1,5 UV-I 366 W/m 5,9 C 5,8 C 12,5 km/h (3 Bft) 98,66 %
02.03.2016 14:00 7,4 C 91 % 1003,7 hPa 0,0 l/m 12,6 km/h (3 Bft) NO 0,00 h 0,153 mm 0,8 UV-I 191 W/m 6,1 C 3,3 C 16,6 km/h (3 Bft) 99,03 %
02.03.2016 15:00 6,8 C 93 % 1002,3 hPa 0,0 l/m 10,1 km/h (2 Bft) NO 0,00 h 0,101 mm 0,5 UV-I 148 W/m 5,7 C 4,2 C 13,9 km/h (3 Bft) 98,12 %
02.03.2016 16:00 6,6 C 93 % 1000,5 hPa 0,0 l/m 9,4 km/h (2 Bft) NO 0,00 h 0,077 mm 0,0 UV-I 88 W/m 5,5 C 4,3 C 13,3 km/h (3 Bft) 99,14 %
02.03.2016 17:00 5,8 C 94 % 999,0 hPa 0,0 l/m 5,6 km/h (1 Bft) N-NO 0,00 h 0,050 mm 0,0 UV-I 22 W/m 4,9 C 5,3 C 8,9 km/h (2 Bft) 98,40 %
02.03.2016 18:00 5,0 C 95 % 999,4 hPa 0,0 l/m 2,0 km/h (1 Bft) NW 0,00 h 0,000 mm 0,0 UV-I 0 W/m 4,3 C 5,0 C 3,7 km/h (1 Bft) 99,25 %
02.03.2016 19:00 5,3 C 94 % 1000,0 hPa 0,0 l/m 3,6 km/h (1 Bft) S 0,00 h 0,000 mm 0,0 UV-I 0 W/m 4,4 C 5,2 C 5,4 km/h (1 Bft) 98,75 %
02.03.2016 20:00 5,4 C 94 % 1000,2 hPa 0,2 l/m 7,5 km/h (2 Bft) S-SW 0,00 h 0,000 mm 0,0 UV-I 0 W/m 4,6 C 4,3 C 10,7 km/h (2 Bft) 99,03 %
02.03.2016 21:00 5,6 C 96 % 1000,6 hPa 2,6 l/m 10,5 km/h (2 Bft) SW 0,00 h 0,000 mm 0,0 UV-I 0 W/m 5,0 C 3,1 C 14,6 km/h (3 Bft) 98,48 %
02.03.2016 22:00 3,8 C 92 % 1002,3 hPa 0,8 l/m 22,5 km/h (4 Bft) W-SW 0,00 h 0,000 mm 0,0 UV-I 0 W/m 2,6 C -5,4 C 32,6 km/h (5 Bft) 98,79 %
02.03.2016 23:00 2,8 C 93 % 1003,1 hPa 0,0 l/m 19,6 km/h (3 Bft) SW 0,00 h 0,026 mm 0,0 UV-I 0 W/m 1,8 C -5,7 C 27,2 km/h (4 Bft) 98,99 %
03.03.2016 00:00 2,7 C 93 % 1003,3 hPa 0,0 l/m 17,1 km/h (3 Bft) SW 0,00 h 0,000 mm 0,0 UV-I 0 W/m 1,6 C -4,7 C 24,0 km/h (4 Bft) 98,43 %
03.03.2016 01:00 2,6 C 92 % 1003,3 hPa 0,0 l/m 10,4 km/h (2 Bft) W-SW 0,00 h 0,000 mm 0,0 UV-I 0 W/m 1,5 C -0,7 C 14,5 km/h (3 Bft) 98,89 %
03.03.2016 02:00 2,5 C 93 % 1002,8 hPa 0,0 l/m 6,6 km/h (2 Bft) W 0,00 h 0,000 mm 0,0 UV-I 0 W/m 1,4 C 1,9 C 9,7 km/h (2 Bft) 98,27 %
03.03.2016 03:00 2,4 C 92 % 1002,4 hPa 0,0 l/m 6,1 km/h (2 Bft) W 0,00 h 0,000 mm 0,0 UV-I 0 W/m 1,3 C 2,0 C 9,0 km/h (2 Bft) 99,05 %
03.03.2016 04:00 2,3 C 92 % 1002,4 hPa 0,0 l/m 4,2 km/h (1 Bft) W-SW 0,00 h 0,000 mm 0,0 UV-I 0 W/m 1,1 C 2,3 C 6,4 km/h (2 Bft) 97,39 %
03.03.2016 05:00 2,2 C 91 % 1002,4 hPa 0,0 l/m 5,4 km/h (1 Bft) SW 0,00 h 0,000 mm 0,0 UV-I 0 W/m 0,9 C 2,2 C 7,5 km/h (2 Bft) 99,25 %
03.03.2016 06:00 2,0 C 92 % 1002,3 hPa 0,0 l/m 5,7 km/h (1 Bft) SW 0,00 h 0,000 mm 0,0 UV-I 5 W/m 0,8 C 1,8 C 7,6 km/h (2 Bft) 97,80 %
03.03.2016 07:00 2,1 C 92 % 1002,8 hPa 0,0 l/m 2,8 km/h (1 Bft) SW 0,00 h 0,000 mm 0,0 UV-I 14 W/m 0,9 C 2,1 C 4,1 km/h (1 Bft) 99,32 %
03.03.2016 08:00 2,1 C 92 % 1003,3 hPa 0,0 l/m 8,6 km/h (2 Bft) SW 0,00 h 0,000 mm 0,0 UV-I 41 W/m 0,9 C -0,5 C 12,5 km/h (3 Bft) 98,29 %
03.03.2016 09:00 1,7 C 95 % 1003,3 hPa 0,2 l/m 12,1 km/h (2 Bft) W-SW 0,00 h 0,025 mm 0,5 UV-I 125 W/m 1,0 C -3,0 C 17,1 km/h (3 Bft) 99,15 %
03.03.2016 10:00 1,7 C 95 % 1003,6 hPa 0,4 l/m 13,1 km/h (3 Bft) W-SW 0,02 h 0,051 mm 0,8 UV-I 180 W/m 1,1 C -3,7 C 18,3 km/h (3 Bft) 98,02 %
03.03.2016 11:00 2,8 C 93 % 1003,4 hPa 0,0 l/m 13,8 km/h (3 Bft) W-SW 0,42 h 0,076 mm 1,5 UV-I 296 W/m 1,7 C -2,8 C 19,3 km/h (3 Bft) 99,52 %
03.03.2016 12:00 3,6 C 84 % 1003,0 hPa 0,0 l/m 11,6 km/h (2 Bft) W-SW 0,02 h 0,127 mm 1,5 UV-I 238 W/m 1,2 C -0,4 C 16,9 km/h (3 Bft) 97,91 %
03.03.2016 13:00 3,7 C 83 % 1002,5 hPa 0,0 l/m 12,0 km/h (2 Bft) W-SW 0,00 h 0,102 mm 1,3 UV-I 243 W/m 1,2 C -0,6 C 17,1 km/h (3 Bft) 99,29 %
03.03.2016 14:00 3,4 C 84 % 1002,2 hPa 0,0 l/m 9,2 km/h (2 Bft) W-SW 0,00 h 0,102 mm 0,7 UV-I 81 W/m 1,0 C 1,0 C 13,1 km/h (3 Bft) 98,46 %
03.03.2016 15:00 2,5 C 87 % 1002,2 hPa 0,0 l/m 6,0 km/h (2 Bft) SW 0,00 h 0,050 mm 0,0 UV-I 56 W/m 0,6 C 2,2 C 8,9 km/h (2 Bft) 99,34 %
03.03.2016 16:00 2,6 C 89 % 1002,2 hPa 0,0 l/m 6,1 km/h (2 Bft) SW 0,00 h 0,026 mm 0,0 UV-I 47 W/m 1,1 C 2,2 C 8,9 km/h (2 Bft) 97,81 %
03.03.2016 17:00 2,6 C 90 % 1002,6 hPa 0,0 l/m 4,5 km/h (1 Bft) SW 0,00 h 0,025 mm 0,0 UV-I 15 W/m 1,0 C 2,5 C 6,5 km/h (2 Bft) 99,31 %
03.03.2016 18:00 2,5 C 88 % 1003,3 hPa 0,0 l/m 6,2 km/h (2 Bft) W-SW 0,00 h 0,000 mm 0,0 UV-I 0 W/m 0,8 C 2,2 C 8,9 km/h (2 Bft) 98,27 %
03.03.2016 19:00 2,3 C 89 % 1003,9 hPa 0,0 l/m 4,0 km/h (1 Bft) W-SW 0,00 h 0,000 mm 0,0 UV-I 0 W/m 0,7 C 2,3 C 5,6 km/h (1 Bft) 98,82 %
03.03.2016 20:00 2,1 C 90 % 1004,4 hPa 0,0 l/m 3,6 km/h (1 Bft) W-SW 0,00 h 0,000 mm 0,0 UV-I 0 W/m 0,7 C 2,1 C 5,0 km/h (1 Bft) 98,37 %
03.03.2016 21:00 1,9 C 92 % 1005,0 hPa 0,0 l/m 4,2 km/h (1 Bft) S-SW 0,00 h 0,000 mm 0,0 UV-I 0 W/m 0,7 C 1,9 C 5,7 km/h (1 Bft) 98,77 %
03.03.2016 22:00 1,9 C 91 % 1005,6 hPa 0,0 l/m 3,7 km/h (1 Bft) S-SW 0,00 h 0,000 mm 0,0 UV-I 0 W/m 0,6 C 1,9 C 5,3 km/h (1 Bft) 98,43 %
03.03.2016 23:00 1,7 C 91 % 1005,9 hPa 0,0 l/m 4,2 km/h (1 Bft) S-SW 0,00 h 0,000 mm 0,0 UV-I 0 W/m 0,4 C 1,7 C 5,7 km/h (1 Bft) 98,81 %
04.03.2016 00:00 1,8 C 88 % 1006,4 hPa 0,0 l/m 4,5 km/h (1 Bft) S-SW 0,00 h 0,000 mm 0,0 UV-I 0 W/m 0,0 C 1,8 C 6,2 km/h (2 Bft) 98,36 %
04.03.2016 01:00 1,6 C 90 % 1006,8 hPa 0,0 l/m 7,2 km/h (2 Bft) SW 0,00 h 0,000 mm 0,0 UV-I 0 W/m 0,1 C 0,6 C 10,0 km/h (2 Bft) 98,33 %
04.03.2016 02:00 1,3 C 91 % 1006,8 hPa 0,0 l/m 7,8 km/h (2 Bft) SW 0,00 h 0,000 mm 0,0 UV-I 0 W/m -0,0 C -0,1 C 10,8 km/h (2 Bft) 98,86 %
04.03.2016 03:00 0,9 C 91 % 1006,8 hPa 0,0 l/m 7,9 km/h (2 Bft) SW 0,00 h 0,000 mm 0,0 UV-I 0 W/m -0,4 C -0,6 C 11,2 km/h (2 Bft) 97,94 %
04.03.2016 04:00 1,2 C 92 % 1007,0 hPa 0,0 l/m 7,5 km/h (2 Bft) SW 0,00 h 0,000 mm 0,0 UV-I 0 W/m 0,0 C 0,1 C 10,8 km/h (2 Bft) 99,22 %
04.03.2016 05:00 1,2 C 93 % 1007,3 hPa 0,0 l/m 5,7 km/h (1 Bft) SW 0,00 h 0,000 mm 0,0 UV-I 0 W/m 0,1 C 1,1 C 7,8 km/h (2 Bft) 97,41 %
04.03.2016 06:00 1,4 C 93 % 1007,6 hPa 0,0 l/m 6,0 km/h (2 Bft) SW 0,00 h 0,000 mm 0,0 UV-I 5 W/m 0,4 C 1,2 C 8,3 km/h (2 Bft) 99,04 %
04.03.2016 07:00 2,0 C 93 % 1008,0 hPa 0,0 l/m 5,6 km/h (1 Bft) W-SW 0,00 h 0,000 mm 0,0 UV-I 22 W/m 1,0 C 1,9 C 7,7 km/h (2 Bft) 97,68 %
04.03.2016 08:00 2,4 C 92 % 1008,1 hPa 0,0 l/m 5,8 km/h (1 Bft) W-SW 0,00 h 0,000 mm 0,0 UV-I 47 W/m 1,3 C 2,1 C 8,4 km/h (2 Bft) 98,98 %
04.03.2016 09:00 3,0 C 90 % 1007,8 hPa 0,0 l/m 6,0 km/h (2 Bft) SW 0,25 h 0,025 mm 0,8 UV-I 185 W/m 1,5 C 2,6 C 8,8 km/h (2 Bft) 97,91 %
04.03.2016 10:00 4,2 C 82 % 1007,3 hPa 0,0 l/m 6,1 km/h (2 Bft) W-SW 0,60 h 0,077 mm 1,2 UV-I 329 W/m 1,4 C 3,3 C 9,7 km/h (2 Bft) 98,67 %
04.03.2016 11:00 5,0 C 76 % 1006,5 hPa 0,0 l/m 4,1 km/h (1 Bft) W 0,50 h 0,152 mm 1,5 UV-I 392 W/m 1,2 C 4,8 C 6,9 km/h (2 Bft) 98,03 %
04.03.2016 12:00 5,7 C 69 % 1005,6 hPa 0,0 l/m 2,7 km/h (1 Bft) NO 0,72 h 0,178 mm 2,0 UV-I 525 W/m 0,4 C 5,7 C 4,7 km/h (1 Bft) 98,59 %
04.03.2016 13:00 6,8 C 69 % 1004,6 hPa 0,0 l/m 8,4 km/h (2 Bft) NO 1,00 h 0,203 mm 1,9 UV-I 617 W/m 1,6 C 4,9 C 12,8 km/h (3 Bft) 98,95 %
04.03.2016 14:00 6,8 C 66 % 1003,5 hPa 0,0 l/m 13,4 km/h (3 Bft) O-NO 0,95 h 0,279 mm 1,2 UV-I 428 W/m 1,0 C 2,4 C 18,2 km/h (3 Bft) 97,26 %
04.03.2016 15:00 6,6 C 64 % 1002,0 hPa 0,0 l/m 18,7 km/h (3 Bft) O-NO 1,00 h 0,229 mm 0,7 UV-I 263 W/m 0,3 C -0,5 C 24,6 km/h (4 Bft) 99,43 %
04.03.2016 16:00 6,1 C 66 % 1001,4 hPa 0,0 l/m 18,1 km/h (3 Bft) O-NO 0,10 h 0,178 mm 0,0 UV-I 116 W/m 0,3 C -0,9 C 23,6 km/h (4 Bft) 97,85 %
04.03.2016 17:00 5,1 C 71 % 1000,9 hPa 0,0 l/m 13,4 km/h (3 Bft) NO 0,03 h 0,101 mm 0,0 UV-I 28 W/m 0,3 C 0,1 C 17,6 km/h (3 Bft) 99,11 %
04.03.2016 18:00 3,8 C 75 % 1000,6 hPa 0,0 l/m 6,4 km/h (2 Bft) O-NO 0,00 h 0,051 mm 0,0 UV-I 0 W/m -0,2 C 3,2 C 8,8 km/h (2 Bft) 97,97 %
04.03.2016 19:00 3,1 C 80 % 1000,4 hPa 0,0 l/m 6,9 km/h (2 Bft) NO 0,00 h 0,026 mm 0,0 UV-I 0 W/m -0,1 C 2,3 C 9,3 km/h (2 Bft) 99,27 %
04.03.2016 20:00 2,5 C 82 % 1000,3 hPa 0,0 l/m 6,3 km/h (2 Bft) O-NO 0,00 h 0,025 mm 0,0 UV-I 0 W/m -0,2 C 2,1 C 8,5 km/h (2 Bft) 97,97 %
04.03.2016 21:00 2,2 C 83 % 1000,1 hPa 0,0 l/m 7,7 km/h (2 Bft) O-NO 0,00 h 0,000 mm 0,0 UV-I 0 W/m -0,4 C 0,6 C 10,7 km/h (2 Bft) 99,44 %
04.03.2016 22:00 2,5 C 82 % 999,3 hPa 0,0 l/m 13,1 km/h (3 Bft) O-NO 0,00 h 0,025 mm 0,0 UV-I 0 W/m -0,3 C -2,7 C 17,5 km/h (3 Bft) 97,59 %
04.03.2016 23:00 2,3 C 82 % 998,9 hPa 0,0 l/m 9,2 km/h (2 Bft) O-NO 0,00 h 0,026 mm 0,0 UV-I 0 W/m -0,4 C -0,2 C 13,3 km/h (3 Bft) 99,24 %
05.03.2016 00:00 1,9 C 85 % 998,6 hPa 0,0 l/m 4,1 km/h (1 Bft) NO 0,00 h 0,000 mm 0,0 UV-I 0 W/m -0,4 C 1,7 C 5,8 km/h (2 Bft) 98,08 %
05.03.2016 01:00 1,6 C 86 % 998,1 hPa 0,0 l/m 5,0 km/h (1 Bft) NO 0,00 h 0,000 mm 0,0 UV-I 0 W/m -0,5 C 1,0 C 6,9 km/h (2 Bft) 99,65 %
05.03.2016 02:00 1,2 C 87 % 997,6 hPa 0,0 l/m 4,8 km/h (1 Bft) O-NO 0,00 h 0,000 mm 0,0 UV-I 0 W/m -0,7 C 1,1 C 6,8 km/h (2 Bft) 97,63 %
05.03.2016 03:00 0,5 C 89 % 996,9 hPa 0,0 l/m 3,1 km/h (1 Bft) NO 0,00 h 0,000 mm 0,0 UV-I 0 W/m -1,1 C 0,4 C 4,7 km/h (1 Bft) 99,51 %
05.03.2016 04:00 -0,6 C 93 % 996,8 hPa 0,0 l/m 1,4 km/h (1 Bft) S-SW 0,00 h 0,000 mm 0,0 UV-I 0 W/m -1,6 C -0,6 C 2,2 km/h (1 Bft) 97,94 %
05.03.2016 05:00 -1,0 C 94 % 996,3 hPa 0,0 l/m 1,6 km/h (1 Bft) S-SW 0,00 h 0,000 mm 0,0 UV-I 0 W/m -1,8 C -1,0 C 2,5 km/h (1 Bft) 99,12 %
05.03.2016 06:00 -0,6 C 94 % 996,0 hPa 0,0 l/m 4,0 km/h (1 Bft) O-NO 0,00 h 0,000 mm 0,0 UV-I 9 W/m -1,5 C -0,9 C 5,9 km/h (2 Bft) 98,47 %
05.03.2016 07:00 -0,2 C 94 % 995,9 hPa 0,0 l/m 5,6 km/h (1 Bft) NO 0,00 h 0,000 mm 0,0 UV-I 40 W/m -1,0 C -0,6 C 7,9 km/h (2 Bft) 99,33 %
05.03.2016 08:00 0,5 C 93 % 996,2 hPa 0,0 l/m 8,0 km/h (2 Bft) NO 0,32 h 0,025 mm 0,6 UV-I 156 W/m -0,4 C -1,1 C 10,8 km/h (2 Bft) 98,06 %
05.03.2016 09:00 2,0 C 90 % 996,3 hPa 0,0 l/m 10,3 km/h (2 Bft) NO 0,97 h 0,051 mm 0,9 UV-I 293 W/m 0,5 C -1,3 C 14,2 km/h (3 Bft) 98,95 %
05.03.2016 10:00 3,5 C 86 % 996,3 hPa 0,0 l/m 8,2 km/h (2 Bft) NO 0,85 h 0,102 mm 1,4 UV-I 336 W/m 1,4 C 1,7 C 11,7 km/h (2 Bft) 98,35 %
05.03.2016 11:00 5,6 C 82 % 995,9 hPa 0,0 l/m 8,8 km/h (2 Bft) NO 0,97 h 0,127 mm 2,2 UV-I 601 W/m 2,9 C 3,7 C 12,9 km/h (3 Bft) 98,72 %
05.03.2016 12:00 7,7 C 77 % 995,3 hPa 0,0 l/m 11,6 km/h (2 Bft) NO 1,00 h 0,254 mm 2,2 UV-I 550 W/m 3,9 C 4,2 C 16,0 km/h (3 Bft) 98,87 %
05.03.2016 13:00 8,7 C 75 % 994,8 hPa 0,0 l/m 9,3 km/h (2 Bft) NO 0,68 h 0,254 mm 1,6 UV-I 381 W/m 4,5 C 6,6 C 13,4 km/h (3 Bft) 98,12 %
05.03.2016 14:00 8,5 C 73 % 994,2 hPa 0,0 l/m 13,7 km/h (3 Bft) O-NO 0,60 h 0,203 mm 1,0 UV-I 285 W/m 4,0 C 4,0 C 18,0 km/h (3 Bft) 99,59 %
05.03.2016 15:00 8,7 C 73 % 993,6 hPa 0,0 l/m 14,0 km/h (3 Bft) O-NO 0,98 h 0,152 mm 0,7 UV-I 267 W/m 4,1 C 4,1 C 18,2 km/h (3 Bft) 98,06 %
05.03.2016 16:00 8,7 C 75 % 993,2 hPa 0,0 l/m 13,5 km/h (3 Bft) O-NO 0,58 h 0,153 mm 0,4 UV-I 162 W/m 4,6 C 4,3 C 17,8 km/h (3 Bft) 98,46 %
05.03.2016 17:00 8,0 C 79 % 992,9 hPa 0,0 l/m 7,9 km/h (2 Bft) NO 0,03 h 0,101 mm 0,0 UV-I 33 W/m 4,5 C 6,8 C 10,7 km/h (2 Bft) 98,17 %
05.03.2016 18:00 6,9 C 81 % 992,8 hPa 0,0 l/m 5,9 km/h (2 Bft) O-NO 0,00 h 0,026 mm 0,0 UV-I 0 W/m 3,9 C 6,1 C 8,1 km/h (2 Bft) 99,28 %
05.03.2016 19:00 5,5 C 87 % 993,7 hPa 0,0 l/m 6,5 km/h (2 Bft) W-SW 0,00 h 0,025 mm 0,0 UV-I 0 W/m 3,5 C 4,2 C 9,3 km/h (2 Bft) 98,35 %
05.03.2016 20:00 5,8 C 83 % 994,4 hPa 0,0 l/m 9,9 km/h (2 Bft) W-SW 0,00 h 0,000 mm 0,0 UV-I 0 W/m 3,1 C 3,1 C 13,7 km/h (3 Bft) 99,35 %
05.03.2016 21:00 5,4 C 83 % 995,0 hPa 0,0 l/m 8,4 km/h (2 Bft) W-SW 0,00 h 0,026 mm 0,0 UV-I 0 W/m 2,8 C 3,6 C 11,8 km/h (2 Bft) 98,38 %
05.03.2016 22:00 4,8 C 85 % 995,2 hPa 0,0 l/m 4,9 km/h (1 Bft) SW 0,00 h 0,025 mm 0,0 UV-I 0 W/m 2,5 C 4,8 C 6,9 km/h (2 Bft) 99,50 %
05.03.2016 23:00 4,3 C 86 % 994,9 hPa 0,0 l/m 4,8 km/h (1 Bft) SW 0,00 h 0,000 mm 0,0 UV-I 0 W/m 2,3 C 4,3 C 6,6 km/h (2 Bft) 98,21 %
06.03.2016 00:00 4,3 C 87 % 994,9 hPa 0,0 l/m 8,4 km/h (2 Bft) SW 0,00 h 0,000 mm 0,0 UV-I 0 W/m 2,4 C 2,5 C 11,9 km/h (2 Bft) 99,61 %
06.03.2016 01:00 3,9 C 89 % 994,6 hPa 0,0 l/m 6,2 km/h (2 Bft) W-SW 0,00 h 0,000 mm 0,0 UV-I 0 W/m 2,2 C 3,0 C 8,4 km/h (2 Bft) 98,03 %
06.03.2016 02:00 4,0 C 88 % 995,4 hPa 0,0 l/m 17,0 km/h (3 Bft) W-SW 0,00 h 0,000 mm 0,0 UV-I 0 W/m 2,2 C -3,0 C 23,2 km/h (4 Bft) 99,68 %
06.03.2016 03:00 3,0 C 90 % 996,4 hPa 0,4 l/m 21,1 km/h (4 Bft) SW 0,00 h 0,025 mm 0,0 UV-I 0 W/m 1,5 C -6,2 C 28,9 km/h (5 Bft) 97,79 %
06.03.2016 04:00 2,2 C 93 % 997,4 hPa 0,6 l/m 20,5 km/h (4 Bft) SW 0,00 h 0,026 mm 0,0 UV-I 0 W/m 1,2 C -6,9 C 28,5 km/h (4 Bft) 99,17 %
06.03.2016 05:00 2,4 C 93 % 998,1 hPa 0,0 l/m 21,0 km/h (4 Bft) SW 0,00 h 0,000 mm 0,0 UV-I 0 W/m 1,4 C -6,9 C 28,5 km/h (4 Bft) 97,79 %
06.03.2016 06:00 2,6 C 93 % 998,9 hPa 0,2 l/m 19,6 km/h (3 Bft) SW 0,00 h 0,000 mm 0,0 UV-I 9 W/m 1,5 C -6,0 C 26,3 km/h (4 Bft) 99,48 %
06.03.2016 07:00 3,1 C 90 % 999,7 hPa 0,0 l/m 15,6 km/h (3 Bft) SW 0,00 h 0,025 mm 0,0 UV-I 39 W/m 1,7 C -3,4 C 21,4 km/h (4 Bft) 98,33 %
06.03.2016 08:00 3,8 C 86 % 1000,3 hPa 0,0 l/m 15,9 km/h (3 Bft) W-SW 0,00 h 0,026 mm 0,5 UV-I 100 W/m 1,7 C -2,8 C 22,2 km/h (4 Bft) 98,89 %
06.03.2016 09:00 4,8 C 80 % 1000,8 hPa 0,0 l/m 18,2 km/h (3 Bft) SW 0,30 h 0,050 mm 0,7 UV-I 236 W/m 1,7 C -2,5 C 25,4 km/h (4 Bft) 98,52 %
06.03.2016 10:00 5,6 C 73 % 1001,3 hPa 0,0 l/m 19,2 km/h (3 Bft) W-SW 0,33 h 0,127 mm 1,1 UV-I 248 W/m 1,1 C -2,0 C 27,1 km/h (4 Bft) 99,29 %
06.03.2016 11:00 5,6 C 70 % 1001,9 hPa 0,0 l/m 21,1 km/h (4 Bft) W-SW 0,13 h 0,153 mm 1,3 UV-I 257 W/m 0,5 C -2,6 C 29,0 km/h (5 Bft) 98,30 %
06.03.2016 12:00 5,8 C 68 % 1001,9 hPa 0,0 l/m 20,3 km/h (4 Bft) W-SW 0,23 h 0,178 mm 1,4 UV-I 280 W/m 0,3 C -2,2 C 28,0 km/h (4 Bft) 99,39 %
06.03.2016 13:00 6,3 C 65 % 1001,8 hPa 0,0 l/m 14,2 km/h (3 Bft) W 0,30 h 0,177 mm 1,1 UV-I 312 W/m 0,3 C 1,3 C 20,8 km/h (4 Bft) 97,86 %
06.03.2016 14:00 6,2 C 63 % 1001,8 hPa 0,0 l/m 12,4 km/h (3 Bft) W-SW 0,00 h 0,178 mm 0,8 UV-I 190 W/m -0,3 C 2,1 C 17,2 km/h (3 Bft) 99,48 %
06.03.2016 15:00 6,2 C 63 % 1002,0 hPa 0,0 l/m 9,1 km/h (2 Bft) W 0,22 h 0,127 mm 0,6 UV-I 182 W/m -0,3 C 4,1 C 14,0 km/h (3 Bft) 98,11 %
06.03.2016 16:00 5,7 C 62 % 1002,1 hPa 0,0 l/m 9,2 km/h (2 Bft) W-SW 0,25 h 0,102 mm 0,0 UV-I 87 W/m -0,9 C 3,4 C 13,5 km/h (3 Bft) 99,43 %
06.03.2016 17:00 4,9 C 67 % 1002,4 hPa 0,0 l/m 4,5 km/h (1 Bft) W 0,02 h 0,076 mm 0,0 UV-I 25 W/m -0,8 C 4,8 C 6,9 km/h (2 Bft) 98,03 %
06.03.2016 18:00 3,9 C 71 % 1003,2 hPa 0,0 l/m 4,3 km/h (1 Bft) W-SW 0,00 h 0,025 mm 0,0 UV-I 0 W/m -0,9 C 3,9 C 5,7 km/h (1 Bft) 99,26 %
06.03.2016 19:00 3,5 C 71 % 1003,8 hPa 0,0 l/m 4,1 km/h (1 Bft) W 0,00 h 0,026 mm 0,0 UV-I 0 W/m -1,3 C 3,5 C 5,5 km/h (1 Bft) 97,89 %
06.03.2016 20:00 2,6 C 73 % 1003,8 hPa 0,0 l/m 3,4 km/h (1 Bft) S 0,00 h 0,025 mm 0,0 UV-I 0 W/m -1,8 C 2,6 C 5,2 km/h (1 Bft) 99,06 %
06.03.2016 21:00 2,6 C 69 % 1004,0 hPa 0,0 l/m 3,2 km/h (1 Bft) S 0,00 h 0,000 mm 0,0 UV-I 0 W/m -2,4 C 2,6 C 5,4 km/h (1 Bft) 98,53 %
06.03.2016 22:00 2,5 C 71 % 1004,1 hPa 0,0 l/m 3,1 km/h (1 Bft) S 0,00 h 0,000 mm 0,0 UV-I 0 W/m -2,3 C 2,5 C 4,5 km/h (1 Bft) 99,26 %
06.03.2016 23:00 1,8 C 75 % 1004,0 hPa 0,0 l/m 2,5 km/h (1 Bft) S 0,00 h 0,000 mm 0,0 UV-I 0 W/m -2,1 C 1,8 C 3,5 km/h (1 Bft) 98,02 %
Min-Datum _ 05.03.16 06.03.16 05.03.16 - 29.02.16 - - - - - 06.03.16 01.03.16 29.02.16 01.03.16
_ Min-Zeit 05:24 15:59 18:24 - 00:00 - - - - - 21:16 06:14 00:00 17:01
Minimum _ -1,2 C 59 % 992,7 hPa - 0,0 km/h (0 Bft) - - - - - -2,8 C -11,8 C 0,0 km/h (0 Bft) 70,37 %
Max-Datum _ 05.03.16 02.03.16 01.03.16 29.02.16 29.02.16 - 05.03.16 04.03.16 05.03.16 04.03.16 02.03.16 05.03.16 02.03.16 29.02.16
_ Max-Zeit 13:21 07:53 12:17 20:02 08:05 - 15:28 14:01 12:20 11:17 14:02 13:22 22:01 00:00
Maximum _ 9,1 C 97 % 1018,9 hPa 3,0 l/m 43,6 km/h
O-NO (6 Bft)
- 0,05 h 0,279 mm 2,5 UV-I 809 W/m 6,7 C 9,1 C 59,5 km/h
W-SW (7 Bft)
100,00 %
Durchschnitt _ 3,4 C 87 % 1005,1 hPa #20,2 l/m 11,1 km/h (2 Bft) W-SW #15:29 h #6,503 mm 1,0 UV-I 144 W/m 1,3 C -0,2 C 15,5 km/h (3 Bft) 98,60 %